sat.trackr.live / text

‹ back to catalog

YAOGAN-16 01B

NORAD 39012 · 2012-066B

PAYLOAD ACTIVE UNKNOWN

§ Identity

Operator
Country
PRC
Launch date
2012-11-25
Launch site
JSC
Launch vehicle
Mass (kg)
RCS (m²)
2.69

External: N2YO · Heavens-Above · Gunter

§ Orbital elements

Epoch: 2026-09-19T22:38:23.259264Z

Period
107.02 min
Inclination
63.3535°
Eccentricity
0.0443237
Mean motion
13.45522389 rev/d
Perigee alt
757.8 km
Apogee alt
1,419.7 km
Semi-major
7,466.9 km
B*
8.0234e-6
RAAN
45.2636°
Arg perigee
27.6931°
Mean anomaly
334.6956°
Rev number
67,885

§ Raw data

YAOGAN-16 01B1 39012U 12066B   26262.94332476 -.00000082  00000+0  80234-5 0  99982 39012  63.3535  45.2636 0443237  27.6931 334.6956 13.45522389678851

JSON: /api/v1/satellites/39012 · /tle

For live sub-satellite position, see the globe view (requires WebGL).

§ Visibility from observer

Set your observer location to see the next 7 days of passes ≥ 10°. The values pass through the URL so the page stays shareable.

No JS? Fill the form by hand. The geolocation button needs JavaScript.